Wind_Speed
141 142 142 142 142 142 142 142 142 142 141 141 141 141 141 140 140 140 139 139 138 138 137 137 136 135 135 134 133 132 131 130 129 128 127 126 124 123 122 120 119 117 115 113 111 109 107 105 103 101 99 98 96 94 93 91 90 89 89 88 87 86 86 85 85 84 83 83 82 80 79 78 76 75 74 73 73 72 71 71 71 71 70 70 68 67
141 141 141 141 141 141 141 142 141 141 141 141 141 141 140 140 139 139 139 138 137 137 136 135 135 134 133 132 131 130 129 128 126 125 124 122 121 120 118 116 114 113 110 108 106 104 102 100 98 96 95 93 92 91 90 89 88 87 87 86 86 86 85 85 84 83 82 82 80 79 78 76 75 74 73 72 71 71 70 70 69 69 69 68 67 66
141 141 141 141 141 140 140 141 141 141 140 140 140 140 139 139 138 138 137 137 136 135 134 134 133 132 131 130 129 127 126 125 123 122 120 119 117 115 114 112 109 107 105 103 101 99 97 95 93 92 91 90 89 88 87 87 86 86 86 85 85 85 84 84 83 82 81 80 79 78 77 75 74 73 72 71 71 70 69 68 68 67 67 66 66 65
141 140 141 140 140 140 140 140 140 140 139 139 139 138 138 137 137 136 135 135 134 133 132 132 131 129 128 127 125 124 122 121 119 118 116 114 112 110 108 106 104 101 99 97 95 93 92 91 89 88 88 87 87 86 86 85 85 85 85 85 84 84 83 83 82 81 80 79 78 77 75 74 73 72 71 71 70 69 68 67 67 66 66 65 65 64
141 140 140 140 139 139 139 139 139 138 138 138 137 137 136 135 135 134 133 132 131 130 129 128 127 126 124 123 121 120 118 116 114 113 111 109 107 104 102 100 98 96 94 92 90 89 88 87 86 86 85 85 85 85 85 85 84 84 84 84 84 83 83 82 81 80 79 78 77 76 74 73 72 72 71 70 69 68 68 67 66 65 65 64 64 63
140 140 139 139 138 138 138 138 137 137 136 136 135 135 134 133 132 131 130 129 128 127 126 124 123 122 120 118 117 115 113 111 109 107 105 102 100 98 96 94 92 90 89 88 86 85 85 84 84 84 84 84 84 84 84 84 84 84 84 83 83 82 82 81 80 79 78 77 76 75 74 73 72 71 70 69 69 68 67 66 65 65 64 63 63 62
139 139 138 137 137 137 136 136 135 135 134 133 133 132 131 130 129 127 126 125 124 122 121 120 118 117 115 113 111 109 107 105 103 100 98 96 94 93 91 89 88 86 85 84 84 83 83 82 82 82 83 83 83 83 84 84 84 83 83 82 82 81 81 80 79 78 77 76 75 74 73 72 71 70 70 69 68 68 67 66 65 64 64 63 62 62
138 137 137 136 135 135 134 134 133 132 131 130 129 128 127 126 125 123 122 121 119 117 116 114 113 111 109 107 105 103 100 98 96 94 92 91 89 88 87 85 85 84 83 82 82 81 81 81 81 81 82 82 83 83 83 83 83 83 82 82 81 80 80 79 78 77 76 75 74 73 72 72 71 70 69 69 68 67 66 66 65 64 63 63 62 62
136 135 135 134 133 132 131 131 130 129 128 126 125 123 122 121 120 118 117 115 113 112 109 107 106 104 102 100 98 96 94 92 90 89 87 86 85 84 83 83 82 82 81 81 80 80 80 80 80 81 81 82 82 83 83 83 82 82 81 81 80 80 79 79 78 77 76 75 74 73 72 71 70 70 69 69 68 67 66 65 65 64 63 63 62 62
134 133 132 131 130 129 127 126 126 125 124 121 120 118 116 114 113 111 110 108 107 105 103 101 99 98 96 95 93 91 89 87 86 84 83 82 82 81 81 81 81 81 80 80 80 80 79 80 80 81 81 82 82 82 82 82 82 81 81 80 80 79 79 78 77 76 75 74 73 72 72 71 70 70 69 68 68 67 66 65 65 64 64 63 63 62
130 129 128 127 126 125 123 122 121 119 118 116 114 112 110 108 106 104 102 101 100 99 97 95 94 92 91 89 88 86 85 83 82 81 81 80 80 80 80 80 80 80 80 80 79 79 79 80 80 81 81 81 82 82 82 81 81 81 81 80 80 79 78 77 77 76 75 74 73 72 71 71 70 69 69 68 68 67 66 65 65 64 64 63 63 62
126 125 123 122 121 119 118 116 115 113 111 109 106 105 103 102 100 97 96 95 94 93 92 91 90 88 86 85 84 83 82 80 80 79 79 79 79 79 80 80 80 80 80 80 80 79 79 80 80 80 81 81 81 81 81 81 81 81 80 80 79 79 78 77 76 76 75 74 73 72 71 70 70 69 69 68 67 67 66 65 65 64 64 64 63 63
120 119 118 116 115 113 111 110 108 106 104 102 100 98 97 96 95 93 92 91 90 90 88 87 86 85 84 82 81 80 79 79 79 79 79 79 79 79 79 80 80 80 80 80 80 80 79 79 80 80 81 81 81 81 81 81 81 81 80 80 79 79 78 77 76 75 75 74 73 72 71 70 70 69 68 68 67 66 66 65 65 64 64 64 64 63
114 113 111 109 108 107 105 103 101 100 98 97 95 94 93 92 91 90 89 89 88 87 86 85 84 83 82 81 80 79 78 78 79 79 79 79 79 79 80 80 80 81 81 80 80 80 79 79 80 80 80 81 81 81 81 82 81 81 81 80 79 79 78 77 76 75 74 74 73 72 71 70 69 69 68 67 67 66 66 65 65 64 64 64 64 64
107 106 104 103 102 101 100 99 97 96 95 94 92 91 90 89 89 88 87 87 86 86 85 83 83 82 81 80 80 79 79 79 79 79 80 80 80 80 80 80 81 81 81 80 80 80 80 79 79 80 80 81 81 81 82 82 82 81 81 80 80 79 78 77 76 75 74 73 72 72 71 70 69 68 68 67 66 66 65 65 65 64 64 64 64 64
102 101 100 99 99 98 97 96 94 93 93 92 91 90 89 88 88 87 86 86 85 85 84 83 83 82 82 81 80 79 79 79 80 80 80 81 81 81 80 81 81 81 81 81 80 80 80 79 79 80 80 81 81 82 82 82 82 82 81 81 80 79 78 77 76 75 74 73 72 71 70 69 69 68 67 67 66 65 65 65 65 64 64 64 64 64
98 97 97 96 96 95 95 94 93 92 91 90 90 89 88 88 87 87 86 86 85 85 84 84 83 83 83 82 82 81 80 80 80 81 81 82 82 82 81 81 81 81 81 81 80 80 80 79 79 80 80 81 81 82 82 82 82 82 81 81 80 79 78 77 76 75 74 73 72 71 70 69 68 67 67 66 66 65 65 65 65 64 64 64 64 64
96 95 95 94 94 94 93 92 91 91 90 90 89 89 88 88 87 87 86 86 85 85 85 84 84 83 83 83 82 82 81 80 81 81 82 82 83 82 82 81 81 82 81 81 80 80 79 79 80 80 80 81 82 82 83 83 83 82 82 81 80 79 78 77 76 75 74 73 72 70 69 69 68 67 66 66 65 65 65 65 64 64 64 64 64 64
94 94 93 93 93 92 92 91 91 90 89 89 89 88 88 88 87 87 86 86 86 85 85 84 84 84 83 83 83 82 81 81 81 81 82 82 83 83 82 82 82 81 81 81 80 80 80 80 80 80 81 81 82 82 83 83 83 82 82 81 80 79 78 77 76 75 73 72 71 70 69 68 67 67 66 66 65 65 65 64 64 64 64 64 64 64
92 92 92 91 91 91 90 90 89 89 88 88 88 88 88 88 87 87 87 86 86 85 85 84 84 83 83 82 82 82 82 81 81 82 82 83 83 83 83 82 82 82 81 81 81 80 80 80 80 81 81 82 82 83 83 83 83 82 82 81 80 79 78 77 76 74 73 72 70 69 68 68 67 66 66 65 65 65 64 64 64 64 64 64 64 64
90 90 90 90 89 89 89 88 88 87 87 86 86 86 87 87 86 86 86 85 85 84 83 83 82 82 82 82 82 82 82 82 82 82 83 83 84 84 83 82 82 82 82 81 81 81 81 81 81 81 82 82 82 83 83 83 83 82 82 81 80 79 78 77 75 74 72 71 70 69 68 67 66 66 65 65 65 64 64 64 64 64 64 64 64 64
88 88 88 87 87 86 86 86 85 85 84 84 84 84 84 84 84 84 83 83 82 82 82 81 81 81 81 82 82 83 82 82 82 82 83 83 84 84 83 82 82 82 82 82 82 81 81 81 81 82 82 82 82 83 83 83 83 82 82 81 80 79 78 76 75 73 72 70 69 68 67 66 65 65 65 64 64 64 64 64 64 64 64 64 64 64
85 86 85 85 84 84 84 83 83 82 82 82 82 82 82 81 81 81 81 81 81 81 81 81 81 82 82 82 83 83 83 82 82 82 83 83 84 84 83 82 82 82 82 82 82 82 82 82 82 82 82 82 83 83 83 83 83 82 82 81 80 79 78 76 75 73 71 70 68 67 66 65 64 64 64 64 64 64 64 63 63 63 64 64 64 64
84 84 83 83 82 82 81 81 80 80 80 80 80 80 80 79 80 80 80 80 80 80 81 81 82 82 83 83 84 84 84 83 83 83 83 83 84 84 83 82 82 82 82 82 82 82 82 82 82 83 82 83 83 83 83 83 83 82 82 81 80 78 77 76 74 73 71 69 68 66 65 64 64 63 63 63 63 63 63 63 63 63 63 64 64 64
84 83 83 82 82 81 80 79 79 78 78 79 79 79 79 79 79 80 80 80 81 81 81 82 82 83 84 84 84 85 85 84 84 83 84 84 84 83 83 82 81 81 82 82 82 82 82 83 83 83 83 83 83 83 83 83 82 82 81 80 79 78 77 75 74 72 70 69 67 65 64 63 63 63 63 63 63 63 63 63 63 63 63 63 64 64
84 84 83 83 82 81 80 79 78 78 78 78 79 79 79 79 79 80 81 81 81 81 82 83 83 84 84 85 85 86 85 85 84 84 84 84 84 83 82 81 80 81 81 82 82 82 83 84 84 84 84 84 84 84 84 83 82 82 81 80 79 77 76 75 73 71 70 68 66 65 64 63 62 62 62 62 62 63 63 63 63 63 63 63 63 63
85 85 84 84 83 82 81 80 79 79 79 79 79 79 79 79 80 81 81 82 82 82 83 84 84 85 85 85 86 86 86 86 85 84 84 83 84 83 82 81 80 81 81 82 82 83 84 84 85 85 85 85 85 85 84 83 82 82 80 79 78 77 75 74 72 71 69 67 66 64 63 63 62 62 62 62 62 63 63 63 63 63 63 63 63 63
86 85 85 85 84 84 83 81 80 80 79 79 79 79 79 79 80 81 82 82 82 83 83 84 85 85 86 86 86 86 86 86 85 84 83 83 83 83 82 81 81 81 82 83 83 83 84 84 85 85 85 86 86 85 85 84 83 82 80 79 78 76 75 73 72 70 68 67 65 64 63 62 62 62 62 62 62 63 63 63 62 62 62 62 62 62
86 86 86 86 85 85 84 83 82 81 81 80 80 80 80 80 80 81 82 83 83 83 84 85 85 86 86 86 86 87 86 86 85 83 82 83 84 83 82 82 82 82 82 83 83 83 83 84 84 85 85 86 86 85 85 84 83 82 81 80 78 77 75 73 71 69 68 66 65 64 63 63 63 62 62 63 63 63 63 62 62 62 62 61 61 61
87 87 87 87 87 86 85 85 84 83 82 82 81 81 80 80 81 82 82 83 83 84 85 85 86 86 86 86 87 87 87 86 84 83 82 83 84 83 82 82 82 82 82 82 83 83 84 83 84 84 85 85 85 85 84 83 83 82 81 80 79 77 75 73 71 69 68 66 65 65 64 64 63 63 63 63 63 63 63 62 62 61 61 60 60 60
88 88 88 88 87 87 87 86 86 85 84 84 83 82 82 82 82 82 83 83 84 84 85 86 86 86 86 86 87 87 87 86 84 82 82 83 84 83 82 83 82 82 81 81 82 83 84 83 83 83 83 83 83 83 83 82 82 81 81 80 79 78 76 74 71 70 68 67 66 65 65 64 64 64 64 64 64 63 63 62 61 61 60 59 59 59
89 89 89 88 88 88 88 88 87 87 86 86 85 84 83 83 83 83 83 84 84 85 85 86 86 86 86 86 87 87 87 86 84 82 82 83 83 83 82 82 82 82 81 80 80 81 82 83 83 82 82 82 82 82 81 81 80 80 80 79 79 78 76 74 72 71 69 68 67 67 66 66 65 65 65 64 64 64 63 62 61 60 59 58 58 57
90 90 90 89 89 89 89 88 88 88 87 87 86 86 85 85 84 84 84 84 85 85 85 86 86 86 86 86 86 87 86 86 84 83 82 83 83 82 81 81 81 81 80 79 78 79 80 81 81 82 81 81 81 80 80 79 79 79 78 78 78 77 75 74 72 71 70 69 69 68 68 67 67 66 65 65 64 64 63 62 61 59 58 57 57 56
91 91 90 90 90 90 89 89 89 89 88 88 88 87 87 86 86 86 86 86 86 86 86 86 86 86 86 86 86 86 86 85 84 82 81 82 82 81 80 80 79 78 78 78 78 78 78 79 79 80 80 79 79 79 78 78 78 77 77 76 76 75 74 73 72 71 71 70 70 69 69 68 68 67 66 65 65 64 63 61 60 59 57 56 55 54
92 92 91 91 91 90 90 90 89 89 89 89 88 88 88 87 87 87 87 87 87 86 86 86 86 86 86 86 86 86 85 84 83 81 80 80 79 79 78 78 77 77 77 77 77 77 77 77 77 77 78 78 77 77 76 76 76 76 75 75 74 74 73 72 71 71 71 71 70 70 70 69 69 68 67 66 65 64 63 61 60 58 56 55 54 53
93 92 92 92 91 91 90 90 90 89 89 89 89 89 89 88 88 88 88 88 88 88 87 87 87 87 86 86 85 85 85 83 82 80 79 78 77 77 76 76 76 75 76 76 76 76 76 76 76 75 75 75 76 75 75 74 74 74 73 73 72 72 71 71 71 71 71 71 71 71 71 70 69 69 68 67 66 64 63 62 60 58 56 55 53 52
93 93 93 92 92 91 91 91 90 90 90 90 90 90 89 89 89 89 89 89 89 88 88 88 88 87 86 86 85 84 84 82 81 79 78 76 76 75 75 75 75 75 75 75 75 75 75 75 74 74 73 73 73 73 73 73 72 72 71 71 71 71 71 71 71 71 71 71 71 71 71 70 70 69 68 67 66 65 64 62 60 59 57 55 53 52
94 94 93 93 92 92 92 91 91 91 91 90 90 90 90 90 90 90 90 90 89 89 89 89 89 88 87 86 85 84 83 81 80 78 77 76 75 74 74 75 74 74 74 74 74 74 74 73 73 72 72 72 71 71 71 71 71 71 70 70 70 70 71 71 71 71 71 71 71 71 71 71 70 70 69 68 67 66 64 63 61 59 57 55 54 52
94 94 94 93 93 92 92 92 92 91 91 91 91 91 91 91 91 91 90 90 90 90 90 90 89 88 87 86 84 83 82 80 79 78 77 76 75 74 74 74 74 74 73 73 73 73 72 72 72 71 71 70 70 70 70 70 70 70 70 69 70 70 70 71 71 72 71 71 71 71 71 70 70 69 69 68 67 66 64 63 61 59 57 56 54 52
94 94 94 94 93 93 93 93 92 92 92 92 92 91 91 91 91 91 91 91 91 90 90 90 89 88 87 86 84 82 81 79 78 77 76 75 75 74 74 74 73 73 73 72 72 71 71 71 70 70 69 69 69 69 69 69 69 68 68 69 69 70 70 71 71 72 71 71 71 71 71 70 69 69 68 67 66 65 64 63 61 59 57 55 54 52
94 94 94 94 93 93 93 93 93 93 93 92 92 92 92 91 91 91 91 91 90 90 90 90 89 88 86 85 83 81 80 78 77 76 76 75 74 74 73 73 73 72 72 71 71 70 69 69 69 68 67 67 67 67 67 68 68 67 67 68 68 69 70 71 71 71 71 71 70 70 70 69 68 68 67 66 66 65 63 62 61 59 57 55 53 52
94 94 94 94 94 93 94 94 93 93 93 93 92 92 92 91 91 91 91 91 90 90 90 89 88 87 85 84 82 80 79 77 76 76 75 74 74 73 72 72 71 71 70 70 70 69 68 67 67 67 66 66 66 66 66 67 66 66 66 67 67 68 69 70 70 70 70 70 69 69 68 68 67 67 66 66 65 64 63 62 60 58 56 54 52 51
94 94 94 94 94 94 94 94 94 93 93 93 93 92 92 91 91 90 90 90 90 90 89 88 87 86 84 83 81 79 78 77 76 75 74 74 73 72 71 71 70 69 68 68 68 67 66 66 65 65 65 64 65 65 66 66 66 66 66 66 67 68 69 69 69 69 69 69 68 68 67 67 66 66 65 65 64 63 62 61 59 57 55 54 52 51
93 93 93 93 93 93 93 93 93 93 93 93 92 92 91 91 90 90 90 90 90 89 88 87 85 84 83 81 80 79 77 76 75 74 73 72 71 71 70 69 68 67 67 66 66 66 65 65 64 64 64 64 64 65 66 66 66 66 66 66 66 67 68 68 68 68 68 68 67 67 66 65 65 64 64 63 63 62 62 60 59 57 55 53 51 50
93 93 93 93 93 93 93 93 93 92 92 92 91 91 90 90 89 89 89 89 89 88 87 85 84 82 81 80 79 78 77 76 75 73 72 71 70 69 68 67 66 66 65 64 64 64 64 64 64 63 63 64 65 65 65 65 65 65 66 66 66 67 67 67 67 67 67 67 66 65 65 64 63 63 63 62 62 61 61 60 58 56 54 52 50 49
92 92 92 92 92 92 92 92 92 91 91 91 90 90 89 89 88 88 88 88 88 87 85 83 82 81 80 79 78 77 76 75 74 73 71 70 68 67 66 65 64 64 63 63 62 62 62 63 63 64 64 64 65 65 65 65 65 65 65 65 65 66 66 66 65 65 65 65 65 64 63 62 62 62 61 61 61 60 59 58 57 55 53 51 50 49
91 91 91 91 91 91 91 90 90 90 89 89 89 88 88 88 88 88 88 87 86 85 83 82 80 79 78 78 77 76 75 74 73 72 70 69 67 66 64 64 63 62 62 62 61 61 62 62 63 63 64 65 65 65 65 65 65 65 65 65 65 65 65 65 64 63 63 63 63 62 62 61 60 60 60 59 59 59 58 57 56 54 52 50 49 48
89 89 89 89 89 89 89 89 89 88 88 88 87 87 87 87 87 87 87 86 84 83 81 80 79 78 77 76 75 74 74 73 72 71 70 68 66 65 63 63 62 61 61 61 61 61 62 62 63 64 64 65 66 66 65 64 64 64 64 64 64 64 64 63 63 62 62 61 61 61 60 60 59 59 58 58 58 57 57 56 54 52 50 49 47 47
88 88 88 88 88 88 88 87 87 87 87 86 86 86 86 86 86 86 85 84 83 81 80 78 77 76 75 75 74 73 72 71 71 70 68 67 65 64 63 62 61 61 61 61 61 61 62 62 63 64 64 65 66 66 65 64 64 63 63 63 62 62 62 62 61 61 60 60 60 59 59 58 58 57 57 56 56 56 55 55 53 51 49 47 46 46
86 86 86 86 87 87 86 86 86 86 85 85 85 86 86 86 85 84 84 82 81 79 78 77 76 75 74 73 72 71 70 70 69 68 67 65 64 63 62 61 61 61 61 61 61 62 62 63 64 64 64 65 65 66 65 65 63 63 62 61 61 61 61 60 60 59 59 58 58 58 58 57 57 56 55 55 54 54 54 53 52 50 47 46 45 45
85 85 85 85 85 85 85 85 85 85 85 85 85 85 85 85 84 83 81 80 79 77 76 75 74 73 72 72 71 70 69 68 67 67 65 64 63 62 61 61 61 61 61 61 62 62 63 64 65 65 65 64 64 65 65 65 63 62 61 60 60 59 59 58 58 57 57 57 57 57 57 57 56 55 54 53 53 53 52 52 51 49 47 45 44 43
Wind_Direction
280 280 280 281 281 281 282 282 282 283 283 284 284 284 285 285 286 286 286 287 287 287 288 288 288 289 289 289 290 290 290 291 291 291 291 292 292 292 292 293 293 293 294 294 294 294 295 295 295 295 295 295 295 295 295 295 296 296 296 296 297 297 297 297 297 298 298 298 298 298 297 297 296 296 296 295 295 295 294 294 293 293 293 293 293 293
280 280 281 281 281 281 282 282 282 283 283 284 284 284 285 285 286 286 286 287 287 287 288 288 288 289 289 289 290 290 290 291 291 291 291 291 292 292 292 293 293 293 293 294 294 294 294 294 294 294 294 294 294 294 295 295 295 296 296 296 297 297 297 297 297 298 298 298 298 298 297 297 297 296 296 296 295 295 294 293 293 293 293 293 293 293
281 281 281 281 281 282 282 282 283 283 283 284 284 284 285 285 286 286 286 287 287 287 288 288 288 289 289 289 289 290 290 290 291 291 291 291 292 292 292 292 293 293 293 293 293 294 294 294 294 294 294 294 294 294 294 295 295 295 296 296 296 297 297 297 297 298 298 298 298 298 298 297 297 297 296 296 296 295 294 294 293 293 293 292 292 292
281 281 281 281 282 282 282 282 283 283 283 284 284 285 285 285 286 286 287 287 287 287 288 288 288 289 289 289 289 290 290 290 290 291 291 291 291 292 292 292 292 292 293 293 293 293 293 293 293 293 293 293 293 294 294 295 295 295 296 296 297 297 297 297 297 298 298 298 298 298 298 298 298 297 297 297 296 295 295 294 293 293 292 292 292 292
281 281 281 282 282 282 282 283 283 283 284 284 284 285 285 286 286 286 287 287 287 287 288 288 288 289 289 289 289 289 290 290 290 290 291 291 291 291 291 292 292 292 292 292 292 292 292 292 292 292 293 293 293 294 294 294 295 295 296 296 297 297 297 297 298 298 298 298 298 298 298 298 298 298 297 297 296 296 295 294 294 293 293 292 292 291
281 281 281 282 282 282 283 283 283 284 284 284 285 285 285 286 286 286 287 287 287 288 288 288 288 288 289 289 289 289 290 290 290 290 290 290 291 291 291 291 291 291 291 291 291 291 291 291 292 292 292 293 293 294 294 295 295 296 296 297 297 297 297 298 298 298 298 299 299 299 299 298 298 298 297 297 296 296 295 295 294 293 293 292 292 291
281 281 281 282 282 282 283 283 283 284 284 285 285 285 286 286 286 287 287 287 287 287 288 288 288 288 288 289 289 289 289 289 290 290 290 290 290 290 290 290 290 290 290 290 290 291 291 291 292 292 292 293 293 294 295 295 296 296 297 297 297 298 298 298 298 299 299 299 299 299 299 299 298 298 298 297 297 296 296 295 294 294 293 292 292 291
281 281 282 282 282 283 283 283 284 284 284 285 285 286 286 286 286 287 287 287 287 287 288 288 288 288 288 288 289 289 289 289 290 290 290 290 290 290 290 289 289 289 289 290 290 290 291 291 292 292 293 293 294 294 295 296 296 297 297 297 298 298 298 299 299 299 299 299 299 299 299 299 298 298 298 297 297 296 296 295 294 294 293 293 292 291
281 282 282 282 283 283 283 284 284 284 284 285 285 286 286 286 286 287 287 287 287 287 287 288 288 288 288 288 289 289 289 289 289 289 289 289 289 289 289 289 289 289 289 289 290 290 291 291 292 292 293 294 294 295 295 296 296 297 297 298 298 298 299 299 299 299 299 299 299 299 299 299 299 298 298 297 297 296 296 295 295 294 293 293 292 292
281 282 282 282 283 283 283 284 284 284 284 285 285 285 286 286 286 287 287 287 287 287 287 287 288 288 288 288 288 289 289 289 289 289 289 288 288 288 288 288 289 289 289 289 290 290 291 291 292 293 293 294 294 295 296 296 297 297 298 298 298 299 299 299 299 299 299 299 299 299 299 299 298 298 298 297 297 296 296 295 295 294 294 293 293 292
282 282 282 282 283 283 283 284 284 284 284 285 285 285 286 286 286 287 287 287 287 287 287 287 288 288 288 288 289 289 289 288 288 288 288 288 288 288 288 288 288 289 289 290 290 291 291 292 292 293 294 294 295 295 296 296 297 297 298 298 299 299 299 299 299 299 299 299 299 299 299 299 298 298 298 297 297 296 296 295 295 294 294 293 293 292
282 282 282 282 283 283 283 283 284 284 284 285 285 286 286 286 286 287 287 287 287 287 287 287 288 288 288 288 288 288 288 288 288 287 287 287 287 287 288 288 288 289 289 290 290 291 292 292 293 293 294 294 295 295 296 296 297 297 298 298 299 299 299 299 299 299 299 299 299 299 299 299 298 298 297 297 297 296 296 295 295 294 294 294 293 292
281 282 282 282 283 283 283 284 284 284 285 285 286 286 286 286 286 286 286 286 287 287 287 287 287 287 287 287 287 287 287 287 287 287 287 287 287 287 288 288 288 289 289 290 290 291 292 292 293 294 294 295 295 296 296 297 297 298 298 298 299 299 299 299 299 299 299 299 299 299 299 298 298 298 297 297 296 296 296 295 295 294 294 294 293 292
281 282 282 283 283 283 283 284 284 285 285 285 285 286 286 286 286 286 286 286 286 286 286 287 287 287 287 287 287 287 287 286 286 286 286 286 287 287 288 288 288 289 289 290 291 291 292 293 293 294 294 295 296 296 296 297 297 298 298 299 299 299 299 299 299 299 299 299 299 299 298 298 298 298 297 297 296 296 295 295 295 294 294 293 293 292
282 282 282 283 283 283 284 284 284 285 285 285 285 285 285 285 285 285 285 285 286 286 286 286 286 286 286 286 286 286 286 286 286 286 286 286 286 287 287 288 288 289 289 290 291 292 292 293 294 294 295 295 296 296 297 297 297 298 298 299 299 299 299 299 299 299 299 299 298 298 298 298 298 297 297 296 296 296 295 295 294 294 294 293 293 292
281 282 282 283 283 283 283 284 284 284 284 285 285 285 285 285 285 285 285 285 285 285 286 286 286 286 286 286 286 286 286 286 286 286 286 286 287 287 287 288 288 289 290 290 291 292 293 293 294 294 295 295 296 296 296 297 297 298 298 298 299 299 299 299 299 299 298 298 298 298 298 298 297 297 297 296 296 295 295 295 294 294 294 293 293 292
281 282 282 282 283 283 283 283 284 284 284 284 284 284 284 284 284 284 284 284 285 285 285 285 285 285 285 285 285 285 286 286 286 286 286 286 287 287 287 288 289 289 290 291 292 292 293 294 294 295 295 295 296 296 296 297 297 297 298 298 299 299 299 299 298 298 298 298 298 298 298 297 297 297 296 296 296 295 295 294 294 294 293 293 292 292
281 281 282 282 282 282 283 283 283 283 283 283 283 284 284 284 284 284 284 284 284 285 285 285 285 285 285 285 285 285 285 286 286 286 286 286 287 287 288 288 289 290 290 291 292 292 293 294 294 295 295 295 295 296 296 296 297 297 297 298 298 298 298 298 298 298 298 297 297 297 297 297 297 297 296 296 295 295 294 294 294 293 293 292 292 291
281 281 281 282 282 282 282 282 282 282 283 283 283 283 283 283 283 284 284 284 284 284 285 285 285 285 285 285 285 285 285 286 286 286 286 287 287 287 288 289 289 290 291 291 292 293 293 294 294 294 295 295 295 295 296 296 296 297 297 298 298 298 298 298 298 297 297 297 297 297 297 297 297 296 296 296 295 295 294 294 293 293 292 292 291 291
281 281 281 281 281 282 282 282 282 282 282 282 283 283 283 283 283 284 284 284 284 285 285 285 285 285 285 285 285 285 285 285 286 286 286 287 287 288 288 289 290 290 291 292 292 293 293 294 294 294 294 295 295 295 296 296 296 297 297 297 297 297 297 297 297 297 297 297 297 297 296 296 296 296 296 295 295 294 294 293 293 292 292 291 291 290
281 281 281 281 281 281 281 282 282 282 282 283 283 283 283 283 284 284 284 284 285 285 285 285 285 285 285 285 285 285 285 286 286 286 287 287 288 288 289 289 290 291 292 292 293 293 293 294 294 294 294 295 295 295 295 296 296 296 297 297 297 297 297 296 296 296 296 296 296 296 296 296 296 295 295 295 294 294 293 293 292 292 291 290 290 289
280 280 281 281 281 281 281 282 282 282 283 283 283 283 284 284 284 285 285 285 286 286 286 286 286 286 286 286 286 285 285 286 286 287 287 288 288 289 289 290 291 292 292 293 293 293 293 293 294 294 294 294 295 295 295 296 296 296 296 296 297 296 296 296 296 296 296 295 295 295 295 295 295 295 295 294 293 293 292 292 291 291 290 289 289 288
280 280 280 281 281 281 282 282 282 283 283 283 284 284 284 285 285 286 286 286 286 286 286 286 286 286 286 286 286 286 286 286 287 287 288 288 289 289 290 291 292 292 292 293 293 293 293 293 294 294 294 294 295 295 295 295 296 296 296 296 296 296 296 296 295 295 295 295 295 295 295 295 295 294 294 293 293 292 291 291 290 290 289 288 288 287
279 280 280 280 281 281 282 282 283 283 284 284 285 285 285 286 286 286 287 287 287 287 287 287 287 286 286 286 286 286 286 287 287 287 288 288 289 289 290 291 292 292 292 293 293 293 293 294 294 294 294 294 295 295 295 295 295 296 296 296 296 295 295 295 295 295 295 294 294 294 294 294 294 293 293 292 292 291 291 290 289 289 288 288 287 286
279 279 280 280 281 281 282 282 283 284 284 285 285 286 286 286 287 287 287 287 287 287 287 287 287 287 287 287 287 287 287 287 287 288 288 288 289 290 290 291 291 292 292 293 293 293 294 294 294 294 295 295 295 295 295 295 295 295 295 295 295 295 295 295 294 294 294 294 294 294 294 293 293 293 292 291 291 290 290 289 289 288 287 287 286 286
278 279 279 280 280 281 282 282 283 284 284 285 285 286 286 287 287 288 288 288 288 288 288 288 288 288 288 288 288 288 288 288 288 288 288 289 289 290 290 290 291 292 292 293 293 294 294 295 295 295 295 295 295 295 295 295 295 295 295 295 295 294 294 294 294 294 294 294 294 294 293 293 293 292 291 291 290 290 289 288 288 287 287 286 286 285
278 278 279 280 280 281 281 282 283 283 284 285 285 286 287 287 288 288 288 288 289 289 289 289 289 289 289 289 289 288 288 289 289 289 289 290 290 290 290 290 291 292 292 293 293 294 294 295 295 295 295 295 295 295 295 295 295 295 295 295 294 294 294 294 294 294 294 294 294 293 293 293 292 292 291 290 290 289 288 288 287 287 286 286 285 285
277 278 279 280 280 281 281 282 282 283 284 284 285 286 287 287 288 288 289 289 289 290 290 290 290 290 290 290 290 289 289 289 289 289 290 290 290 290 290 290 291 291 292 293 293 293 294 294 295 295 295 295 295 295 295 295 295 295 295 295 294 294 294 294 294 294 294 293 293 293 293 293 292 291 291 290 289 289 288 288 287 287 286 286 286 285
277 278 279 279 280 280 281 281 282 282 283 284 284 285 286 287 288 288 289 289 290 290 290 290 290 290 291 291 290 290 290 290 290 290 290 290 290 290 290 290 291 291 292 293 293 293 293 294 294 295 295 295 295 295 295 295 295 295 295 295 295 294 294 294 294 294 294 294 294 293 293 292 292 291 290 290 289 289 288 288 287 287 287 286 286 285
277 278 278 279 280 280 281 281 281 282 282 283 284 285 286 286 287 288 288 289 290 290 290 291 291 291 291 291 291 291 291 290 290 290 290 290 290 290 290 290 290 291 292 292 293 293 293 293 293 294 294 294 294 294 295 295 295 295 295 295 295 295 294 294 294 294 294 294 294 294 293 293 292 291 291 290 289 289 288 288 288 288 287 287 286 286
277 277 278 279 279 280 280 281 281 281 282 282 283 284 285 286 286 287 288 288 289 290 290 291 291 291 292 292 291 291 291 290 290 290 290 290 290 290 290 290 290 291 291 292 293 293 293 293 293 293 293 293 293 294 294 294 295 295 295 295 295 295 295 295 295 295 295 295 294 294 293 293 292 291 291 290 290 289 289 289 289 288 288 287 287 286
276 277 277 278 279 279 280 281 281 282 282 283 283 284 284 285 286 286 287 288 288 289 290 290 291 291 291 291 291 291 291 290 290 290 290 290 290 289 290 290 290 290 291 291 291 292 292 292 292 292 292 293 293 293 294 294 294 295 295 295 295 295 295 296 296 296 296 295 295 294 294 293 292 292 291 291 290 290 290 290 289 289 288 288 287 286
275 276 277 277 278 279 279 280 281 281 282 283 283 284 284 285 285 286 286 287 288 288 289 290 290 291 291 291 291 290 290 290 290 289 289 289 289 289 289 290 290 290 290 290 290 290 290 290 291 291 292 292 292 293 293 293 294 294 294 295 295 295 295 296 296 296 296 296 295 295 294 293 292 292 291 291 291 291 291 290 290 289 289 288 287 286
275 276 276 277 277 278 279 279 280 281 282 282 283 284 284 285 285 286 286 287 287 288 289 289 290 290 290 290 290 290 290 289 289 289 289 289 289 289 289 289 289 289 289 289 289 289 289 289 290 291 291 292 292 292 293 293 293 294 294 294 295 295 295 296 296 296 296 296 295 294 294 293 293 292 292 292 292 292 292 291 291 290 289 288 287 286
276 276 276 277 277 278 279 279 280 281 281 282 283 283 284 284 285 285 286 287 287 288 289 289 290 290 290 290 290 290 289 288 288 288 288 288 288 288 288 288 288 288 288 288 288 288 289 289 289 290 291 291 291 292 292 292 293 293 294 294 294 295 295 295 296 296 295 295 295 294 294 293 293 293 293 293 293 293 293 292 292 291 290 289 288 287
276 276 277 277 278 279 279 280 280 281 282 282 283 283 284 284 285 285 286 287 288 288 289 290 290 290 290 290 290 289 289 288 288 287 287 287 287 287 287 287 287 287 287 287 287 288 288 289 289 290 290 291 291 291 292 292 293 293 293 294 294 294 295 295 295 295 295 294 294 294 294 294 294 294 294 295 294 294 294 293 292 292 291 289 288 287
277 277 277 278 279 279 280 280 281 281 282 283 283 283 284 285 285 286 286 287 288 289 289 290 291 291 290 290 289 289 288 288 287 287 287 287 286 286 286 286 286 286 287 287 287 288 288 289 289 290 290 290 291 292 292 293 293 293 293 294 294 295 295 295 295 294 294 294 294 294 294 294 294 295 295 295 295 295 294 294 293 292 291 290 289 288
277 277 278 278 279 279 280 281 281 281 282 283 283 284 284 285 285 286 287 287 288 289 290 290 291 291 291 290 289 288 288 287 287 287 286 286 286 286 286 286 286 286 286 287 287 288 289 289 290 290 290 291 291 292 292 293 293 294 294 294 295 295 295 294 294 294 293 293 293 293 294 294 295 295 295 295 295 295 294 294 293 292 291 291 289 288
276 277 278 278 279 279 280 280 281 281 282 282 283 283 284 284 285 286 287 287 288 289 290 290 291 290 290 289 289 288 287 287 286 286 286 285 285 285 285 286 286 286 287 287 288 288 289 289 289 290 291 291 292 292 293 293 293 294 294 294 294 294 294 293 293 293 292 292 293 293 293 294 294 295 295 295 294 294 294 293 292 292 291 290 289 288
276 277 277 278 278 279 279 280 280 281 281 282 282 283 283 284 285 285 286 287 288 289 289 290 290 290 289 288 288 287 286 286 285 285 285 285 285 285 285 285 286 286 287 287 288 288 288 289 289 290 291 291 292 292 293 293 293 293 294 294 294 293 293 292 292 291 291 292 292 293 293 293 294 294 294 294 293 293 293 292 292 291 290 290 289 289
276 276 277 277 278 278 279 279 280 280 280 281 282 282 283 283 284 285 286 286 287 288 288 289 289 288 288 287 286 286 285 284 284 284 284 284 284 285 285 285 286 286 287 287 288 288 288 289 290 290 291 291 292 292 292 292 292 292 292 292 292 292 291 291 290 291 291 291 292 292 293 293 293 293 293 293 293 292 292 291 291 290 290 289 289 289
275 275 276 277 277 278 278 279 279 279 280 281 281 282 282 283 284 284 285 286 287 287 288 288 288 287 287 286 285 284 283 283 283 283 283 283 284 284 285 285 285 286 287 287 287 288 288 289 290 290 291 291 292 292 292 291 291 291 291 290 290 290 289 289 289 290 291 291 292 292 292 293 293 293 293 292 292 291 291 290 290 289 289 289 289 288
274 275 275 276 276 277 277 278 278 279 280 280 281 281 282 282 283 284 285 285 286 287 287 287 286 286 285 285 284 283 282 282 282 282 283 283 283 284 284 285 285 286 286 287 288 288 289 289 290 290 291 292 292 291 291 291 290 290 289 289 289 289 289 289 289 290 290 291 292 292 292 292 293 292 292 292 291 291 290 289 289 289 289 289 288 288
274 274 275 275 276 276 277 277 278 278 279 280 280 281 281 282 283 284 284 285 286 286 286 286 285 285 284 283 282 282 282 282 282 282 282 282 283 283 284 285 285 286 287 287 288 289 290 290 291 291 291 292 291 291 290 290 289 289 289 289 288 288 289 289 290 290 291 291 292 292 292 292 292 292 291 291 290 290 289 289 288 288 288 288 288 287
273 274 274 275 275 276 276 277 277 278 279 279 280 281 281 282 283 283 284 285 285 285 285 285 284 283 283 282 282 282 282 282 282 282 282 282 283 284 284 285 286 286 287 288 288 289 290 291 292 292 291 291 290 290 289 289 289 288 288 288 289 289 289 289 290 291 291 292 292 292 292 292 292 291 290 290 289 289 288 288 288 288 288 288 287 286
273 273 274 274 275 275 276 276 277 278 279 279 280 280 281 282 283 283 284 284 285 284 284 284 283 282 282 281 281 281 282 282 282 282 283 283 284 284 285 286 287 287 288 289 290 290 291 292 292 292 291 290 289 288 288 288 288 288 288 288 289 289 289 290 290 291 291 292 292 292 292 291 291 290 289 289 288 288 287 287 287 287 287 287 286 285
272 273 273 274 274 275 276 276 277 278 278 279 280 281 281 282 283 283 284 284 284 284 283 282 282 281 281 281 281 281 282 282 282 283 284 284 285 286 286 287 288 288 289 290 291 291 292 291 291 291 290 289 288 288 287 287 288 288 288 289 289 289 290 290 291 291 291 291 291 291 291 290 289 288 288 287 287 287 286 286 286 286 286 286 285 284
272 273 273 274 274 275 276 276 277 278 279 279 280 281 282 282 283 283 283 283 283 282 282 281 281 281 280 281 281 281 282 282 283 284 284 285 286 287 288 288 289 290 291 291 292 292 291 291 290 289 289 288 288 287 287 288 288 288 289 289 290 290 291 291 292 292 292 291 291 290 290 289 288 287 287 286 286 286 285 285 285 285 285 285 284 283
272 273 273 274 275 275 276 277 277 278 279 280 280 281 282 282 282 283 283 282 282 281 281 280 280 280 280 280 281 281 282 282 283 284 285 286 287 288 289 290 291 291 292 292 292 291 291 290 289 288 288 288 288 288 288 288 289 289 290 290 291 291 291 292 292 292 292 291 291 290 289 288 287 286 286 286 285 285 285 285 285 285 284 284 283 282
272 273 274 274 275 276 276 277 278 279 279 280 280 281 281 282 282 282 281 281 281 280 280 280 280 280 280 280 281 281 282 283 284 285 286 287 288 289 290 291 292 292 292 292 291 291 290 289 288 288 287 287 288 288 289 289 290 290 290 291 291 292 292 292 292 292 291 291 290 289 288 287 286 286 285 285 285 285 285 285 284 284 284 283 282 281
273 273 274 275 275 276 277 277 278 279 279 280 280 281 281 281 281 281 280 280 280 279 279 280 280 280 280 280 281 282 282 283 284 285 286 288 289 290 291 292 292 292 292 292 291 291 290 290 289 288 288 288 288 289 289 290 290 291 291 292 292 292 292 292 292 292 291 291 290 288 287 286 286 285 285 285 285 285 284 284 284 284 284 283 282 281
Height
10549 10546 10544 10544 10544 10544 10543 10540 10540 10540 10540 10537 10535 10533 10533 10532 10531 10529 10528 10526 10525 10523 10521 10519 10516 10515 10513 10511 10510 10508 10506 10504 10502 10500 10498 10495 10493 10491 10489 10486 10485 10483 10480 10478 10476 10474 10471 10469 10467 10465 10462 10460 10458 10456 10454 10452 10450 10449 10447 10446 10444 10442 10440 10438 10436 10434 10431 10430 10428 10425 10423 10421 10419 10416 10415 10413 10410 10408 10406 10405 10403 10401 10399 10398 10396 10395
10540 10539 10537 10536 10536 10536 10535 10533 10531 10531 10531 10530 10528 10526 10525 10524 10523 10521 10520 10518 10517 10515 10513 10511 10509 10507 10506 10504 10503 10501 10499 10497 10495 10492 10490 10488 10486 10483 10481 10480 10478 10476 10473 10471 10469 10466 10465 10462 10460 10458 10455 10453 10451 10450 10448 10446 10445 10443 10441 10440 10438 10436 10434 10432 10430 10428 10426 10423 10421 10420 10417 10415 10413 10411 10409 10407 10405 10403 10401 10400 10398 10396 10395 10393 10391 10390
10531 10531 10530 10528 10528 10528 10528 10525 10523 10523 10523 10522 10520 10518 10517 10516 10515 10513 10512 10511 10509 10507 10505 10503 10501 10500 10498 10496 10495 10493 10491 10490 10487 10485 10483 10480 10478 10476 10474 10472 10470 10468 10466 10465 10462 10460 10458 10456 10453 10451 10449 10447 10445 10443 10441 10440 10439 10437 10436 10434 10432 10430 10428 10426 10424 10421 10420 10418 10416 10413 10411 10409 10407 10405 10403 10401 10400 10398 10396 10395 10393 10391 10390 10388 10386 10385
10524 10523 10522 10520 10519 10519 10519 10518 10516 10515 10515 10513 10512 10511 10510 10508 10507 10506 10504 10503 10501 10499 10496 10495 10493 10491 10490 10489 10487 10485 10484 10482 10480 10478 10475 10473 10471 10469 10467 10465 10463 10461 10460 10458 10456 10454 10451 10450 10447 10445 10443 10441 10439 10437 10436 10435 10433 10431 10430 10428 10426 10424 10421 10420 10418 10416 10414 10411 10410 10408 10406 10403 10401 10400 10398 10396 10394 10393 10391 10389 10388 10386 10385 10383 10382 10380
10516 10516 10515 10513 10511 10511 10510 10509 10508 10508 10507 10505 10504 10503 10501 10501 10499 10498 10496 10495 10493 10491 10489 10487 10485 10484 10482 10481 10479 10478 10476 10475 10473 10470 10468 10466 10464 10462 10460 10458 10456 10455 10453 10451 10450 10448 10446 10443 10441 10440 10437 10435 10433 10431 10430 10428 10427 10425 10424 10422 10420 10418 10416 10413 10411 10410 10408 10406 10404 10402 10400 10398 10396 10394 10392 10390 10388 10387 10385 10384 10382 10381 10380 10378 10377 10375
10508 10507 10507 10506 10505 10503 10502 10501 10500 10500 10498 10497 10496 10495 10494 10493 10491 10490 10488 10486 10485 10483 10481 10479 10478 10476 10475 10473 10471 10470 10468 10467 10465 10463 10461 10459 10456 10455 10453 10451 10450 10448 10446 10445 10443 10441 10440 10438 10436 10434 10431 10430 10428 10426 10424 10423 10421 10420 10418 10416 10414 10411 10410 10408 10405 10403 10401 10400 10398 10396 10394 10392 10390 10388 10386 10385 10383 10381 10380 10378 10377 10376 10375 10373 10371 10370
10500 10499 10498 10498 10497 10496 10494 10493 10493 10491 10491 10490 10488 10486 10485 10485 10483 10482 10480 10478 10476 10475 10473 10471 10470 10468 10466 10465 10464 10463 10461 10460 10458 10456 10454 10451 10450 10448 10446 10445 10443 10442 10441 10439 10438 10436 10435 10433 10430 10428 10426 10424 10422 10420 10418 10416 10415 10413 10411 10410 10408 10405 10403 10401 10400 10398 10396 10394 10392 10390 10388 10386 10385 10383 10381 10379 10377 10376 10374 10373 10371 10370 10369 10368 10366 10365
10492 10491 10490 10489 10489 10488 10487 10485 10485 10484 10483 10482 10481 10479 10478 10476 10475 10473 10472 10470 10468 10467 10465 10464 10462 10460 10459 10458 10456 10455 10454 10452 10451 10449 10447 10445 10443 10441 10440 10438 10436 10435 10435 10433 10432 10431 10429 10427 10425 10423 10420 10418 10416 10414 10412 10410 10409 10407 10405 10403 10401 10399 10397 10395 10393 10391 10390 10388 10386 10385 10383 10381 10379 10377 10375 10373 10371 10370 10369 10367 10366 10365 10363 10362 10361 10360
10485 10483 10482 10481 10480 10480 10480 10478 10476 10475 10475 10475 10473 10472 10470 10469 10467 10465 10463 10461 10460 10459 10457 10456 10455 10453 10451 10450 10450 10448 10446 10445 10444 10442 10441 10438 10436 10435 10433 10431 10430 10430 10428 10428 10426 10425 10424 10421 10420 10417 10415 10412 10410 10408 10406 10405 10403 10401 10399 10397 10395 10393 10391 10389 10387 10386 10384 10382 10381 10379 10377 10375 10373 10371 10370 10368 10366 10365 10363 10362 10360 10359 10358 10356 10355 10354
10476 10475 10475 10474 10473 10471 10471 10471 10470 10468 10467 10466 10466 10465 10463 10461 10460 10458 10455 10453 10452 10451 10450 10448 10446 10445 10445 10443 10443 10441 10440 10439 10437 10436 10435 10432 10430 10428 10426 10425 10424 10423 10422 10421 10421 10420 10418 10416 10414 10411 10409 10406 10405 10402 10400 10398 10396 10395 10393 10391 10389 10387 10385 10383 10381 10380 10378 10376 10375 10373 10371 10370 10368 10366 10364 10362 10361 10359 10358 10356 10355 10353 10352 10351 10350 10348
10468 10467 10466 10466 10465 10464 10463 10463 10462 10461 10460 10460 10458 10457 10456 10455 10453 10451 10448 10446 10445 10443 10442 10441 10440 10438 10438 10436 10435 10435 10433 10433 10431 10430 10428 10426 10425 10423 10421 10420 10418 10417 10416 10415 10415 10414 10412 10410 10408 10405 10403 10401 10398 10396 10395 10392 10390 10389 10387 10385 10383 10381 10380 10378 10376 10374 10372 10371 10369 10367 10365 10364 10362 10360 10358 10357 10355 10353 10352 10351 10350 10348 10346 10345 10344 10343
10461 10460 10459 10458 10457 10456 10455 10455 10454 10453 10453 10452 10451 10450 10448 10447 10445 10444 10441 10440 10438 10436 10436 10435 10433 10432 10431 10430 10429 10428 10427 10426 10425 10423 10422 10420 10419 10417 10415 10413 10412 10411 10410 10410 10409 10408 10407 10405 10403 10400 10397 10395 10392 10390 10388 10386 10385 10383 10381 10379 10377 10375 10374 10372 10370 10368 10366 10365 10363 10361 10360 10358 10356 10355 10353 10351 10350 10348 10347 10345 10344 10343 10341 10340 10338 10336
10453 10452 10451 10450 10450 10448 10448 10447 10446 10446 10445 10445 10445 10443 10442 10440 10438 10437 10435 10433 10431 10430 10430 10429 10428 10426 10425 10425 10423 10422 10421 10420 10419 10418 10416 10415 10413 10411 10410 10408 10406 10405 10404 10403 10403 10402 10401 10400 10397 10394 10391 10389 10386 10384 10382 10380 10378 10376 10375 10373 10371 10370 10368 10366 10365 10363 10361 10359 10357 10356 10354 10353 10351 10349 10348 10346 10345 10343 10341 10340 10338 10337 10335 10334 10333 10331
10445 10445 10444 10443 10441 10441 10440 10440 10440 10439 10438 10438 10437 10436 10435 10434 10433 10431 10428 10426 10425 10424 10424 10423 10421 10420 10420 10419 10418 10416 10415 10414 10413 10411 10410 10408 10407 10406 10405 10402 10400 10399 10398 10397 10396 10396 10395 10394 10391 10388 10386 10383 10380 10378 10376 10374 10372 10370 10369 10367 10365 10364 10362 10360 10358 10357 10355 10353 10351 10350 10348 10347 10345 10344 10342 10341 10339 10338 10336 10335 10333 10331 10330 10328 10327 10325
10438 10438 10436 10435 10434 10433 10433 10433 10433 10432 10431 10431 10431 10430 10429 10428 10426 10425 10423 10421 10420 10418 10418 10416 10415 10414 10413 10413 10412 10411 10410 10408 10406 10405 10403 10401 10401 10400 10399 10396 10394 10393 10392 10391 10390 10390 10389 10388 10385 10383 10380 10377 10375 10372 10370 10368 10366 10365 10363 10361 10360 10358 10356 10355 10353 10351 10350 10348 10346 10345 10343 10341 10340 10338 10337 10335 10334 10332 10331 10329 10328 10326 10325 10323 10321 10320
10431 10431 10430 10428 10428 10427 10426 10426 10426 10426 10425 10425 10424 10423 10423 10421 10420 10418 10417 10416 10414 10413 10412 10411 10409 10408 10406 10406 10406 10406 10405 10403 10401 10399 10397 10395 10394 10394 10393 10391 10388 10386 10386 10385 10385 10383 10383 10381 10379 10376 10374 10371 10368 10366 10364 10361 10360 10358 10357 10355 10353 10352 10350 10349 10347 10345 10344 10342 10341 10339 10338 10336 10335 10333 10331 10330 10328 10327 10325 10324 10322 10321 10319 10317 10316 10314
10425 10424 10423 10422 10421 10421 10420 10420 10420 10420 10419 10418 10418 10417 10416 10415 10413 10413 10411 10410 10409 10408 10406 10405 10404 10402 10400 10399 10400 10400 10400 10397 10395 10393 10391 10388 10387 10386 10387 10385 10383 10380 10379 10379 10378 10378 10376 10375 10373 10370 10368 10365 10362 10360 10358 10356 10354 10353 10351 10349 10348 10346 10345 10343 10341 10340 10338 10336 10335 10333 10332 10331 10329 10328 10326 10325 10323 10321 10320 10318 10317 10315 10313 10312 10310 10308
10418 10418 10417 10416 10415 10415 10415 10414 10414 10413 10413 10412 10411 10410 10410 10408 10408 10406 10406 10405 10403 10402 10401 10400 10398 10396 10395 10393 10392 10393 10394 10392 10389 10386 10385 10382 10380 10380 10380 10380 10377 10375 10373 10372 10372 10371 10370 10368 10366 10364 10361 10359 10356 10354 10352 10350 10348 10346 10345 10343 10341 10340 10338 10336 10335 10334 10332 10331 10330 10328 10327 10325 10324 10322 10321 10320 10318 10316 10315 10313 10311 10310 10308 10306 10305 10303
10411 10411 10411 10410 10410 10409 10408 10408 10408 10407 10406 10406 10405 10404 10403 10402 10401 10401 10400 10399 10398 10396 10395 10394 10392 10391 10390 10387 10386 10386 10387 10386 10383 10381 10378 10376 10373 10373 10373 10373 10371 10369 10367 10366 10366 10365 10364 10362 10360 10358 10355 10353 10350 10348 10346 10345 10343 10341 10339 10337 10335 10334 10332 10331 10330 10328 10326 10325 10324 10323 10321 10320 10318 10317 10316 10314 10313 10311 10310 10308 10306 10305 10303 10301 10300 10298
10405 10404 10404 10404 10403 10403 10402 10401 10401 10401 10401 10400 10399 10398 10397 10396 10395 10395 10394 10393 10392 10391 10390 10388 10386 10385 10383 10381 10380 10380 10380 10380 10378 10375 10373 10370 10367 10366 10366 10366 10365 10363 10361 10360 10359 10358 10357 10355 10353 10351 10348 10346 10345 10342 10340 10338 10336 10335 10333 10331 10330 10328 10326 10325 10323 10323 10321 10320 10319 10318 10316 10315 10313 10312 10310 10309 10307 10306 10305 10303 10301 10300 10298 10296 10294 10292
10398 10398 10397 10398 10398 10397 10396 10395 10396 10396 10395 10395 10393 10392 10391 10390 10390 10389 10388 10387 10386 10385 10384 10383 10380 10378 10377 10376 10374 10373 10373 10373 10371 10369 10366 10365 10361 10360 10360 10360 10358 10356 10354 10353 10352 10351 10350 10348 10346 10344 10342 10340 10338 10336 10334 10332 10330 10328 10326 10325 10323 10321 10320 10319 10318 10316 10316 10315 10314 10313 10311 10310 10308 10307 10305 10304 10302 10300 10299 10298 10296 10294 10293 10291 10289 10287
10393 10391 10391 10391 10391 10391 10390 10390 10390 10390 10390 10389 10388 10386 10385 10385 10384 10383 10382 10381 10380 10379 10378 10376 10375 10373 10371 10370 10367 10366 10366 10367 10366 10363 10361 10358 10355 10353 10353 10353 10352 10350 10348 10346 10345 10344 10343 10341 10339 10337 10336 10334 10332 10330 10328 10326 10323 10321 10320 10318 10316 10315 10313 10313 10311 10311 10310 10309 10308 10307 10306 10305 10303 10301 10300 10298 10297 10295 10294 10292 10291 10289 10287 10285 10283 10281
10387 10386 10386 10386 10385 10385 10384 10384 10384 10384 10383 10383 10381 10380 10380 10379 10378 10376 10376 10375 10374 10373 10371 10370 10368 10366 10365 10363 10361 10360 10360 10360 10360 10358 10356 10353 10349 10347 10347 10348 10346 10343 10341 10340 10338 10336 10335 10333 10331 10330 10329 10327 10325 10323 10321 10319 10317 10315 10313 10311 10310 10308 10307 10306 10305 10305 10304 10303 10303 10301 10301 10300 10298 10296 10295 10293 10291 10290 10288 10287 10285 10283 10282 10280 10278 10276
10381 10381 10380 10380 10380 10379 10379 10378 10378 10378 10378 10376 10376 10375 10374 10373 10372 10371 10370 10369 10368 10366 10365 10363 10362 10360 10358 10357 10355 10354 10353 10354 10353 10353 10350 10348 10345 10342 10341 10341 10340 10337 10334 10333 10331 10330 10327 10325 10323 10323 10321 10320 10318 10316 10315 10313 10310 10308 10306 10305 10303 10302 10301 10300 10299 10298 10298 10297 10296 10296 10295 10294 10293 10291 10290 10288 10286 10285 10283 10281 10280 10278 10276 10275 10273 10271
10376 10375 10374 10374 10374 10374 10373 10373 10373 10372 10371 10370 10370 10368 10368 10366 10366 10365 10363 10362 10361 10360 10359 10358 10355 10353 10351 10351 10349 10347 10346 10347 10347 10346 10344 10342 10340 10337 10336 10336 10335 10331 10328 10326 10325 10323 10321 10318 10316 10315 10313 10312 10311 10309 10307 10305 10303 10301 10300 10298 10297 10295 10294 10293 10293 10292 10291 10291 10290 10290 10289 10288 10287 10286 10284 10282 10281 10279 10277 10276 10274 10273 10271 10269 10267 10265
10370 10369 10368 10368 10368 10368 10368 10368 10367 10366 10366 10365 10363 10362 10361 10361 10360 10358 10356 10355 10355 10354 10353 10351 10349 10346 10345 10345 10343 10341 10340 10340 10340 10340 10338 10336 10333 10331 10330 10330 10329 10326 10323 10320 10318 10317 10315 10311 10308 10306 10305 10304 10302 10301 10299 10298 10296 10295 10293 10291 10290 10289 10288 10286 10286 10285 10285 10285 10284 10284 10283 10282 10281 10280 10278 10276 10275 10273 10271 10270 10268 10267 10265 10263 10261 10260
10365 10363 10363 10362 10361 10361 10361 10361 10361 10360 10360 10358 10358 10356 10356 10355 10353 10351 10350 10348 10348 10348 10346 10345 10342 10340 10339 10338 10336 10334 10333 10333 10332 10332 10332 10330 10328 10325 10323 10323 10323 10321 10318 10315 10313 10311 10309 10306 10303 10300 10298 10296 10294 10292 10291 10290 10288 10286 10285 10284 10283 10281 10281 10280 10279 10279 10278 10278 10278 10277 10276 10276 10275 10273 10272 10270 10268 10267 10265 10264 10263 10261 10260 10258 10256 10255
10359 10358 10357 10356 10355 10355 10355 10355 10355 10354 10353 10352 10351 10351 10350 10349 10348 10345 10343 10342 10343 10341 10340 10338 10336 10335 10333 10331 10330 10328 10327 10326 10325 10325 10325 10324 10321 10318 10316 10316 10316 10314 10312 10309 10306 10305 10303 10300 10298 10295 10292 10289 10287 10285 10283 10281 10280 10278 10277 10276 10275 10274 10273 10273 10272 10272 10271 10271 10271 10271 10270 10269 10268 10267 10266 10264 10263 10261 10260 10258 10257 10256 10254 10253 10251 10249
10353 10352 10351 10350 10349 10348 10348 10348 10348 10348 10347 10346 10346 10345 10345 10343 10342 10339 10337 10336 10336 10335 10333 10331 10330 10328 10326 10325 10323 10321 10320 10319 10318 10319 10319 10318 10314 10311 10311 10310 10309 10307 10306 10304 10301 10298 10296 10295 10292 10290 10286 10283 10281 10278 10276 10274 10272 10270 10269 10268 10266 10266 10265 10265 10265 10265 10265 10265 10264 10263 10263 10262 10261 10260 10259 10257 10256 10255 10253 10252 10251 10250 10248 10247 10245 10244
10347 10346 10345 10343 10343 10342 10341 10341 10341 10341 10341 10340 10340 10339 10338 10338 10336 10334 10332 10331 10330 10328 10326 10325 10323 10322 10321 10319 10317 10315 10312 10311 10312 10313 10313 10311 10308 10305 10305 10304 10302 10301 10300 10298 10295 10291 10289 10287 10286 10285 10281 10278 10275 10273 10270 10268 10266 10264 10261 10260 10258 10257 10257 10257 10258 10258 10258 10258 10257 10256 10256 10255 10254 10253 10251 10250 10249 10248 10246 10246 10245 10244 10243 10241 10240 10238
10340 10340 10338 10337 10336 10336 10335 10335 10334 10334 10334 10333 10333 10333 10332 10331 10330 10329 10327 10325 10324 10322 10320 10318 10316 10315 10315 10313 10311 10308 10305 10304 10305 10307 10307 10305 10301 10298 10298 10297 10295 10293 10293 10293 10291 10286 10283 10280 10278 10278 10276 10273 10270 10267 10265 10263 10260 10258 10256 10253 10251 10250 10249 10250 10250 10250 10250 10250 10250 10249 10248 10248 10246 10246 10245 10243 10242 10241 10240 10240 10238 10238 10237 10236 10235 10233
10334 10333 10332 10331 10330 10330 10329 10328 10328 10327 10327 10327 10326 10326 10326 10325 10324 10323 10321 10320 10318 10316 10315 10312 10311 10309 10308 10306 10305 10301 10298 10297 10298 10299 10300 10298 10294 10291 10291 10291 10288 10286 10286 10286 10285 10282 10278 10275 10271 10270 10269 10267 10265 10261 10260 10257 10255 10253 10250 10248 10245 10243 10242 10242 10243 10243 10243 10242 10242 10241 10241 10240 10239 10238 10238 10236 10236 10235 10234 10233 10233 10232 10231 10230 10229 10228
10327 10326 10326 10325 10325 10324 10323 10322 10321 10321 10321 10320 10320 10319 10319 10318 10317 10316 10315 10313 10312 10310 10308 10306 10305 10303 10301 10300 10298 10295 10293 10291 10291 10292 10293 10291 10288 10286 10285 10284 10282 10280 10278 10278 10277 10276 10274 10270 10267 10265 10263 10261 10259 10256 10254 10251 10250 10248 10245 10243 10240 10238 10236 10236 10236 10236 10235 10235 10234 10233 10233 10232 10231 10231 10230 10230 10229 10228 10227 10226 10226 10226 10225 10225 10223 10222
10320 10320 10320 10319 10318 10318 10317 10316 10316 10315 10315 10314 10313 10313 10312 10311 10310 10309 10308 10306 10305 10304 10303 10301 10299 10297 10295 10293 10291 10289 10286 10285 10285 10286 10286 10285 10282 10280 10278 10277 10276 10274 10272 10271 10270 10269 10267 10265 10263 10260 10257 10255 10253 10251 10249 10246 10244 10242 10240 10238 10235 10233 10231 10231 10230 10230 10228 10228 10226 10226 10225 10225 10224 10223 10223 10223 10221 10221 10220 10220 10219 10219 10219 10218 10218 10216
10313 10313 10313 10312 10311 10311 10310 10310 10310 10309 10308 10307 10306 10306 10305 10304 10303 10301 10301 10300 10299 10298 10296 10295 10293 10291 10290 10287 10285 10282 10280 10278 10279 10280 10280 10278 10276 10274 10272 10270 10269 10268 10266 10264 10263 10262 10260 10258 10257 10255 10253 10250 10246 10245 10243 10241 10240 10237 10235 10233 10231 10228 10227 10226 10225 10224 10222 10221 10220 10218 10218 10217 10216 10216 10216 10215 10215 10213 10213 10212 10212 10211 10211 10211 10211 10211
10306 10306 10305 10305 10305 10305 10304 10303 10303 10302 10301 10301 10300 10299 10298 10296 10296 10295 10294 10293 10292 10291 10290 10288 10286 10285 10283 10281 10279 10276 10273 10271 10271 10272 10272 10271 10270 10268 10266 10263 10262 10261 10260 10258 10256 10256 10254 10252 10250 10249 10247 10245 10241 10239 10237 10236 10234 10232 10229 10227 10226 10224 10222 10221 10220 10218 10216 10215 10213 10212 10211 10210 10210 10209 10208 10208 10207 10206 10205 10205 10205 10205 10205 10205 10205 10205
10300 10299 10298 10298 10298 10298 10297 10296 10296 10296 10295 10294 10293 10291 10291 10290 10288 10288 10286 10286 10285 10283 10282 10280 10279 10278 10276 10274 10272 10270 10267 10265 10265 10265 10265 10264 10263 10261 10259 10256 10255 10255 10254 10251 10250 10249 10248 10246 10244 10242 10241 10239 10236 10233 10231 10230 10228 10226 10223 10222 10220 10218 10216 10215 10214 10213 10211 10209 10208 10206 10205 10205 10203 10203 10201 10201 10200 10199 10198 10198 10198 10197 10197 10197 10198 10198
10293 10293 10292 10292 10292 10291 10291 10290 10290 10289 10288 10287 10286 10285 10284 10283 10281 10281 10280 10279 10278 10276 10275 10273 10272 10270 10268 10266 10265 10263 10261 10259 10258 10258 10257 10256 10255 10255 10253 10250 10248 10248 10247 10246 10244 10243 10241 10240 10238 10236 10234 10233 10231 10229 10226 10224 10221 10220 10218 10216 10215 10213 10211 10210 10208 10207 10205 10204 10202 10201 10200 10199 10198 10196 10195 10194 10193 10192 10191 10191 10191 10191 10191 10191 10191 10191
10286 10286 10285 10285 10285 10285 10285 10283 10283 10282 10281 10281 10280 10278 10277 10276 10275 10275 10273 10273 10271 10270 10268 10267 10265 10263 10261 10260 10258 10256 10255 10253 10252 10251 10250 10249 10248 10247 10246 10244 10242 10241 10240 10240 10238 10237 10235 10234 10232 10230 10228 10226 10225 10223 10221 10218 10216 10214 10213 10211 10210 10208 10206 10204 10202 10201 10200 10198 10197 10196 10195 10194 10193 10191 10190 10188 10187 10186 10185 10184 10184 10184 10184 10184 10184 10185
10280 10280 10279 10278 10278 10278 10278 10277 10276 10275 10275 10274 10273 10272 10271 10271 10270 10268 10267 10266 10265 10264 10262 10261 10259 10257 10255 10253 10251 10250 10248 10247 10246 10245 10244 10243 10241 10241 10240 10238 10236 10235 10234 10233 10232 10231 10230 10228 10226 10225 10224 10222 10220 10217 10215 10213 10211 10210 10209 10207 10205 10203 10201 10199 10196 10195 10194 10193 10192 10191 10190 10188 10188 10186 10185 10183 10181 10180 10179 10178 10178 10178 10178 10178 10178 10178
10273 10273 10272 10271 10271 10271 10271 10270 10269 10268 10268 10267 10266 10266 10265 10265 10263 10262 10261 10260 10259 10258 10256 10255 10253 10251 10249 10247 10245 10244 10243 10241 10240 10239 10238 10236 10235 10235 10233 10232 10231 10230 10228 10226 10225 10225 10223 10222 10220 10219 10218 10216 10215 10212 10210 10208 10206 10205 10205 10203 10201 10199 10196 10193 10191 10190 10189 10188 10187 10186 10185 10183 10182 10181 10179 10177 10176 10175 10174 10173 10172 10171 10172 10173 10173 10173
10267 10266 10265 10265 10265 10265 10263 10263 10262 10261 10261 10260 10260 10259 10258 10258 10258 10256 10255 10253 10252 10251 10250 10249 10247 10245 10242 10240 10238 10237 10236 10236 10235 10233 10232 10231 10230 10228 10228 10226 10225 10224 10223 10221 10220 10218 10218 10216 10215 10213 10212 10211 10209 10206 10204 10202 10201 10201 10200 10198 10196 10194 10191 10189 10187 10186 10184 10182 10181 10181 10180 10178 10177 10175 10173 10171 10170 10169 10168 10167 10166 10166 10166 10167 10167 10168
10260 10260 10259 10258 10258 10257 10256 10256 10255 10255 10254 10253 10253 10252 10251 10251 10251 10250 10249 10247 10245 10244 10243 10242 10240 10238 10235 10233 10231 10230 10230 10229 10228 10227 10226 10225 10224 10223 10221 10221 10220 10218 10218 10216 10214 10212 10211 10211 10210 10208 10206 10205 10203 10201 10198 10196 10196 10195 10194 10193 10191 10189 10186 10183 10182 10181 10180 10178 10176 10176 10175 10173 10172 10170 10168 10166 10165 10163 10162 10161 10161 10161 10161 10161 10162 10162
10253 10253 10252 10252 10251 10251 10250 10249 10248 10248 10248 10247 10246 10245 10245 10245 10245 10244 10242 10240 10239 10237 10236 10235 10233 10231 10229 10226 10225 10223 10222 10222 10221 10221 10220 10219 10218 10217 10216 10215 10214 10213 10212 10211 10209 10206 10205 10204 10203 10201 10200 10198 10196 10194 10193 10191 10190 10190 10188 10187 10186 10184 10181 10178 10177 10176 10174 10173 10171 10170 10169 10168 10166 10165 10163 10161 10159 10157 10156 10155 10155 10155 10156 10157 10157 10157
10247 10246 10246 10245 10245 10244 10243 10242 10241 10241 10241 10240 10240 10239 10238 10238 10238 10237 10235 10233 10231 10230 10229 10228 10226 10225 10222 10220 10218 10217 10216 10215 10214 10214 10213 10213 10213 10211 10211 10210 10208 10208 10206 10205 10204 10202 10200 10198 10196 10195 10193 10192 10190 10188 10186 10186 10185 10184 10183 10181 10180 10178 10176 10175 10173 10171 10170 10168 10166 10165 10164 10163 10161 10159 10157 10155 10153 10152 10151 10150 10150 10150 10151 10152 10152 10152
10240 10240 10239 10238 10238 10237 10236 10236 10236 10235 10235 10233 10233 10232 10231 10231 10231 10230 10228 10226 10225 10223 10221 10221 10220 10218 10215 10213 10212 10211 10209 10208 10206 10206 10206 10206 10206 10206 10205 10204 10203 10202 10201 10200 10198 10196 10195 10193 10190 10188 10186 10185 10183 10182 10181 10181 10180 10178 10177 10176 10175 10172 10170 10169 10168 10167 10165 10163 10161 10160 10158 10157 10156 10154 10151 10150 10148 10146 10145 10145 10145 10145 10146 10147 10147 10147
10233 10233 10232 10231 10231 10231 10230 10230 10230 10229 10228 10227 10226 10226 10225 10225 10224 10222 10221 10220 10218 10216 10215 10214 10213 10211 10209 10207 10206 10205 10203 10201 10200 10199 10199 10199 10199 10199 10199 10198 10197 10196 10195 10193 10191 10190 10188 10187 10185 10183 10180 10178 10176 10175 10175 10175 10174 10173 10171 10170 10169 10167 10165 10163 10163 10161 10160 10158 10156 10155 10153 10151 10150 10148 10147 10145 10143 10141 10140 10140 10140 10141 10141 10142 10142 10142
10226 10226 10225 10225 10225 10224 10223 10223 10223 10223 10221 10220 10220 10219 10218 10218 10216 10215 10213 10212 10211 10210 10209 10207 10206 10205 10203 10201 10200 10199 10197 10195 10194 10193 10193 10193 10193 10193 10193 10191 10191 10190 10188 10187 10186 10184 10182 10180 10179 10176 10175 10172 10170 10169 10168 10169 10168 10167 10166 10165 10164 10162 10160 10158 10157 10156 10155 10153 10151 10149 10148 10146 10144 10143 10141 10140 10138 10137 10136 10135 10135 10136 10137 10138 10138 10137
10220 10219 10218 10218 10218 10218 10217 10216 10216 10216 10215 10214 10213 10212 10211 10211 10210 10208 10206 10205 10205 10203 10202 10201 10200 10199 10197 10195 10194 10193 10192 10190 10189 10188 10187 10186 10186 10186 10186 10185 10185 10183 10182 10181 10180 10178 10176 10174 10172 10170 10168 10166 10165 10163 10162 10162 10162 10161 10160 10160 10158 10157 10155 10153 10152 10151 10150 10147 10145 10143 10141 10140 10139 10138 10136 10135 10133 10132 10131 10130 10130 10131 10133 10133 10133 10132
10213 10212 10212 10211 10211 10211 10210 10210 10210 10209 10208 10207 10206 10206 10205 10203 10203 10201 10200 10199 10198 10197 10196 10195 10194 10193 10191 10190 10188 10187 10186 10185 10183 10183 10181 10181 10181 10181 10180 10179 10178 10177 10176 10174 10173 10171 10170 10167 10165 10163 10163 10161 10160 10157 10156 10155 10156 10156 10155 10154 10153 10152 10150 10148 10147 10146 10144 10141 10139 10137 10135 10134 10133 10133 10132 10131 10129 10128 10126 10125 10125 10126 10127 10128 10128 10128
10205 10205 10205 10205 10205 10204 10204 10203 10203 10203 10201 10201 10200 10199 10198 10196 10196 10195 10194 10193 10191 10191 10190 10190 10188 10187 10185 10184 10183 10181 10181 10180 10178 10177 10176 10176 10176 10176 10175 10173 10173 10171 10170 10168 10166 10165 10163 10160 10158 10155 10155 10155 10155 10153 10150 10149 10149 10150 10149 10148 10148 10147 10145 10143 10142 10140 10138 10136 10133 10131 10129 10128 10127 10127 10127 10126 10125 10123 10122 10121 10120 10121 10122 10123 10123 10123